Precipitable_Water
1.05 1.07 1.06 1.02 1.00 1.01 1.01 0.97 0.91 0.93 1.00 1.02 0.97 0.93 0.92 0.90 0.84 0.77 0.60 0.65 0.65 0.63 0.60 0.54 0.52 0.46 0.44 0.39 0.42 0.42 0.28 0.24 0.29 0.31 0.32 0.37 0.35 0.44 0.50 0.58 0.76 0.87 0.89 0.99 1.16
1.06 1.06 1.02 0.98 0.99 0.99 0.98 0.95 0.91 0.97 1.03 0.99 0.94 0.92 0.87 0.84 0.75 0.69 0.74 0.69 0.67 0.66 0.57 0.52 0.46 0.48 0.41 0.40 0.41 0.37 0.29 0.29 0.36 0.39 0.35 0.35 0.34 0.35 0.41 0.43 0.63 0.69 0.89 0.97 0.99
1.05 1.01 0.97 0.96 0.97 0.98 0.95 0.90 0.90 1.05 1.03 0.95 0.93 0.89 0.85 0.83 0.67 0.63 0.74 0.74 0.73 0.65 0.63 0.57 0.52 0.48 0.40 0.42 0.40 0.38 0.31 0.36 0.38 0.39 0.40 0.38 0.36 0.37 0.33 0.32 0.58 0.65 0.81 0.95 0.97
1.01 0.97 0.95 0.97 0.95 0.94 0.92 0.91 1.02 1.05 0.97 0.92 0.91 0.87 0.83 0.78 0.42 0.69 0.78 0.79 0.77 0.74 0.65 0.55 0.47 0.42 0.39 0.36 0.40 0.33 0.36 0.37 0.35 0.40 0.39 0.36 0.38 0.36 0.37 0.41 0.57 0.68 0.84 0.95 0.88
0.98 0.96 0.95 0.95 0.92 0.94 0.96 1.07 1.10 1.03 0.98 0.94 0.90 0.87 0.74 0.57 0.56 0.79 0.80 0.79 0.76 0.71 0.60 0.50 0.44 0.43 0.38 0.40 0.40 0.36 0.36 0.38 0.39 0.39 0.37 0.39 0.36 0.36 0.38 0.50 0.65 0.76 0.79 0.80 0.80
1.01 1.03 1.02 1.01 1.03 1.05 1.14 1.16 1.08 1.03 1.00 0.96 0.92 0.88 0.69 0.47 0.74 0.80 0.79 0.71 0.69 0.64 0.56 0.53 0.50 0.51 0.44 0.43 0.41 0.41 0.38 0.38 0.39 0.38 0.37 0.34 0.37 0.39 0.40 0.47 0.62 0.68 0.69 0.73 0.73
1.10 1.10 1.13 1.18 1.22 1.24 1.22 1.14 1.08 1.05 1.01 0.97 0.93 0.85 0.67 0.57 0.77 0.79 0.70 0.65 0.68 0.64 0.58 0.62 0.61 0.54 0.51 0.44 0.49 0.45 0.37 0.38 0.36 0.38 0.38 0.39 0.35 0.37 0.41 0.46 0.52 0.62 0.66 0.69 0.72
1.19 1.23 1.30 1.34 1.33 1.28 1.20 1.11 1.08 1.02 0.98 0.97 0.95 0.84 0.60 0.80 0.86 0.74 0.71 0.68 0.69 0.67 0.63 0.63 0.62 0.55 0.51 0.54 0.49 0.43 0.42 0.33 0.39 0.41 0.42 0.38 0.31 0.41 0.46 0.45 0.47 0.50 0.60 0.68 0.73
1.38 1.41 1.42 1.37 1.33 1.25 1.17 1.12 1.06 0.99 0.98 0.99 0.88 0.82 0.57 0.88 0.73 0.74 0.74 0.64 0.67 0.66 0.65 0.65 0.60 0.51 0.50 0.42 0.38 0.41 0.34 0.36 0.38 0.41 0.40 0.39 0.34 0.41 0.46 0.46 0.47 0.51 0.53 0.59 0.69
1.46 1.46 1.40 1.35 1.27 1.19 1.13 1.06 0.97 0.99 0.98 0.97 0.92 0.71 0.71 0.64 0.67 0.62 0.64 0.62 0.58 0.60 0.57 0.57 0.53 0.45 0.44 0.39 0.29 0.35 0.36 0.39 0.36 0.40 0.40 0.36 0.36 0.41 0.44 0.45 0.45 0.48 0.50 0.53 0.63
1.48 1.40 1.35 1.29 1.21 1.15 1.06 0.93 0.78 0.73 0.80 0.66 0.62 0.64 0.59 0.64 0.66 0.56 0.58 0.55 0.52 0.49 0.40 0.49 0.43 0.34 0.39 0.45 0.46 0.40 0.36 0.36 0.39 0.42 0.37 0.34 0.33 0.37 0.42 0.43 0.42 0.41 0.42 0.46 0.60
1.42 1.37 1.31 1.23 1.16 1.10 0.98 0.83 0.80 0.79 0.54 0.61 0.54 0.51 0.54 0.53 0.44 0.47 0.53 0.41 0.40 0.34 0.41 0.40 0.33 0.40 0.49 0.47 0.41 0.37 0.33 0.32 0.36 0.38 0.33 0.30 0.28 0.32 0.34 0.32 0.27 0.28 0.32 0.40 0.57
1.37 1.30 1.24 1.19 1.10 0.94 0.88 0.85 0.92 0.81 0.50 0.47 0.50 0.49 0.49 0.51 0.41 0.40 0.47 0.42 0.37 0.34 0.35 0.34 0.35 0.47 0.47 0.43 0.39 0.38 0.33 0.30 0.28 0.29 0.29 0.26 0.17 0.16 0.19 0.21 0.22 0.24 0.28 0.34 0.51
1.31 1.25 1.19 1.11 0.92 0.93 0.82 0.96 0.95 0.78 0.36 0.36 0.45 0.45 0.47 0.47 0.40 0.49 0.48 0.41 0.38 0.33 0.36 0.34 0.40 0.40 0.40 0.38 0.39 0.30 0.33 0.28 0.24 0.21 0.15 0.20 0.08 0.13 0.14 0.18 0.24 0.28 0.27 0.32 0.50
1.27 1.22 1.14 1.09 0.94 0.84 0.92 0.98 0.82 0.71 0.22 0.42 0.42 0.52 0.45 0.39 0.42 0.38 0.46 0.38 0.30 0.34 0.34 0.28 0.31 0.33 0.31 0.30 0.32 0.26 0.27 0.23 0.21 0.17 0.13 0.16 0.13 0.11 0.20 0.24 0.33 0.38 0.39 0.43 0.53
1.26 1.17 1.08 0.93 0.87 0.94 0.98 0.86 0.69 0.38 0.22 0.34 0.40 0.37 0.36 0.36 0.35 0.39 0.37 0.40 0.38 0.30 0.30 0.27 0.26 0.28 0.24 0.25 0.23 0.25 0.21 0.20 0.19 0.18 0.11 0.15 0.19 0.15 0.25 0.29 0.35 0.39 0.45 0.55 0.62
1.19 1.10 0.98 1.01 0.86 0.98 0.85 0.69 0.36 0.27 0.35 0.30 0.32 0.35 0.32 0.31 0.36 0.35 0.31 0.32 0.27 0.23 0.21 0.21 0.22 0.25 0.25 0.22 0.28 0.28 0.24 0.17 0.15 0.17 0.14 0.22 0.22 0.24 0.30 0.33 0.35 0.34 0.40 0.53 0.62
1.11 1.03 0.94 0.97 1.02 0.98 0.75 0.51 0.29 0.34 0.33 0.38 0.34 0.32 0.28 0.29 0.26 0.27 0.27 0.27 0.29 0.26 0.22 0.19 0.18 0.25 0.31 0.27 0.26 0.27 0.25 0.20 0.16 0.16 0.17 0.22 0.17 0.19 0.32 0.37 0.43 0.47 0.46 0.49 0.59
1.05 0.96 0.98 0.94 0.94 0.83 0.58 0.37 0.31 0.31 0.35 0.35 0.35 0.30 0.29 0.29 0.27 0.26 0.25 0.27 0.29 0.28 0.23 0.22 0.22 0.29 0.30 0.29 0.30 0.27 0.24 0.29 0.25 0.23 0.20 0.19 0.22 0.27 0.36 0.40 0.47 0.51 0.53 0.51 0.54
0.94 0.91 0.86 0.99 0.87 0.66 0.48 0.36 0.37 0.41 0.44 0.42 0.32 0.33 0.28 0.27 0.26 0.27 0.27 0.30 0.28 0.31 0.33 0.29 0.22 0.28 0.28 0.30 0.29 0.29 0.30 0.23 0.25 0.19 0.16 0.19 0.21 0.24 0.35 0.39 0.44 0.46 0.52 0.58 0.60
0.93 0.75 0.95 0.96 0.75 0.55 0.39 0.40 0.39 0.38 0.45 0.41 0.39 0.34 0.32 0.29 0.27 0.26 0.26 0.30 0.33 0.30 0.30 0.28 0.26 0.23 0.26 0.25 0.23 0.26 0.26 0.28 0.28 0.26 0.22 0.20 0.23 0.36 0.40 0.42 0.43 0.47 0.50 0.55 0.61
0.83 0.60 0.94 0.91 0.54 0.50 0.41 0.42 0.43 0.43 0.44 0.43 0.42 0.39 0.33 0.32 0.29 0.27 0.26 0.31 0.36 0.35 0.28 0.31 0.27 0.22 0.24 0.30 0.30 0.29 0.25 0.25 0.22 0.22 0.25 0.25 0.25 0.38 0.42 0.44 0.42 0.44 0.43 0.45 0.45
0.66 0.65 0.87 0.82 0.46 0.46 0.50 0.46 0.41 0.37 0.36 0.36 0.37 0.40 0.40 0.34 0.31 0.32 0.30 0.35 0.35 0.33 0.31 0.32 0.28 0.22 0.21 0.23 0.27 0.27 0.28 0.29 0.29 0.32 0.28 0.25 0.24 0.36 0.36 0.39 0.37 0.35 0.35 0.38 0.42
0.66 0.52 0.67 0.70 0.62 0.49 0.43 0.40 0.38 0.42 0.40 0.41 0.39 0.41 0.41 0.38 0.39 0.33 0.31 0.34 0.36 0.34 0.35 0.34 0.29 0.26 0.20 0.21 0.25 0.22 0.22 0.24 0.25 0.22 0.24 0.26 0.29 0.31 0.33 0.30 0.30 0.32 0.32 0.32 0.35
0.65 0.54 0.61 0.48 0.48 0.48 0.47 0.45 0.41 0.41 0.47 0.48 0.42 0.39 0.38 0.35 0.35 0.33 0.34 0.33 0.34 0.34 0.35 0.32 0.25 0.28 0.27 0.26 0.25 0.24 0.22 0.20 0.21 0.24 0.22 0.24 0.24 0.29 0.31 0.28 0.27 0.30 0.32 0.31 0.34
0.58 0.54 0.56 0.51 0.50 0.46 0.46 0.42 0.39 0.40 0.42 0.42 0.43 0.44 0.42 0.34 0.34 0.31 0.34 0.34 0.36 0.40 0.39 0.41 0.29 0.32 0.28 0.31 0.31 0.29 0.24 0.26 0.26 0.25 0.23 0.24 0.22 0.27 0.29 0.32 0.33 0.33 0.33 0.33 0.37
0.72 0.70 0.57 0.51 0.49 0.45 0.44 0.44 0.41 0.44 0.44 0.45 0.45 0.42 0.40 0.41 0.46 0.46 0.48 0.45 0.44 0.41 0.39 0.39 0.36 0.31 0.24 0.32 0.29 0.25 0.24 0.25 0.24 0.23 0.23 0.19 0.21 0.29 0.30 0.32 0.32 0.33 0.34 0.35 0.42
Wind_Speed
16 16 16 16 17 18 19 19 20 20 19 20 20 21 21 21 20 10 7 7 8 11 12 12 11 12 12 9 11 10 9 11 11 10 11 9 9 11 12 12 13 14 13 11 12
17 17 17 17 17 18 18 18 18 18 19 19 20 20 21 20 14 7 5 6 8 10 11 11 12 13 12 12 11 9 9 12 13 15 13 13 12 12 12 13 12 10 9 9 12
17 17 17 17 17 18 18 17 17 18 19 20 20 21 20 18 10 6 7 9 11 12 11 12 13 14 13 12 12 13 13 16 16 15 13 14 16 14 14 14 11 10 10 10 10
18 18 18 17 17 17 17 17 17 18 19 20 21 21 20 13 8 11 11 12 13 13 13 12 12 13 13 12 14 13 13 15 17 17 14 14 17 17 13 12 11 12 10 11 12
19 18 18 18 17 17 17 18 19 20 21 21 21 21 18 14 13 12 13 14 15 14 13 13 13 12 12 14 16 14 14 17 17 17 17 16 16 17 17 15 12 12 13 14 15
20 19 18 18 18 18 19 20 21 22 22 22 22 21 18 17 14 16 17 17 16 15 14 13 12 14 14 15 15 16 18 19 20 21 20 18 15 14 17 15 15 15 15 16 17
21 20 20 20 20 20 22 23 25 25 24 24 24 22 19 19 18 20 17 16 14 15 14 14 15 14 17 17 17 18 19 20 21 20 18 17 16 16 19 19 18 17 17 17 17
23 22 22 22 22 23 24 26 28 28 26 25 24 21 20 21 19 17 16 15 14 16 16 18 17 17 17 18 18 19 18 16 17 18 19 13 17 17 14 14 17 17 18 19 20
25 25 24 24 24 26 27 30 30 29 27 25 22 19 21 17 14 13 16 17 18 17 18 19 18 17 18 18 18 15 15 17 21 10 10 12 17 17 16 13 15 18 20 21 22
27 26 25 26 27 28 30 31 30 27 23 21 21 18 18 15 16 20 20 18 19 19 19 17 16 16 17 14 14 15 17 16 14 13 13 16 19 20 20 19 22 24 24 24 25
27 26 26 27 27 28 28 27 23 22 20 21 23 23 25 24 25 22 21 21 20 19 19 19 18 18 19 18 20 17 18 19 18 19 21 21 23 24 24 25 26 27 27 26 26
28 28 28 27 28 28 27 23 21 23 25 25 28 30 29 24 23 22 18 17 17 18 18 18 21 22 21 22 17 17 19 20 22 22 22 25 29 27 27 28 31 30 27 25 24
29 29 29 28 27 26 23 21 23 23 23 23 20 19 18 14 16 17 13 16 17 19 19 19 20 20 20 18 19 19 21 21 23 22 23 27 31 28 27 27 30 32 30 26 27
31 29 27 26 24 23 22 21 22 22 21 20 14 13 12 13 15 14 14 15 16 17 18 19 20 17 18 19 20 22 22 21 22 23 23 20 32 26 28 29 28 29 28 26 26
31 29 27 26 25 24 22 22 21 19 18 16 15 14 14 14 17 17 15 17 18 19 17 19 19 18 19 20 22 23 22 23 24 26 29 23 23 26 27 26 21 20 18 19 23
32 31 29 27 27 25 24 22 20 17 20 18 17 19 18 19 18 18 18 18 20 21 22 24 24 23 23 24 22 23 24 26 25 24 29 26 21 31 23 20 18 18 14 14 18
33 32 30 28 26 25 24 21 19 19 20 18 20 20 21 21 22 21 21 21 19 19 21 23 24 24 25 27 22 21 22 21 21 19 26 24 25 25 21 22 22 22 18 16 20
34 32 31 29 27 25 23 22 24 22 23 20 21 22 23 23 23 24 24 24 23 23 25 24 23 20 18 18 20 21 20 19 22 21 28 30 26 27 23 20 19 16 19 18 20
34 33 31 31 28 27 25 26 25 25 25 23 26 25 25 25 25 22 24 24 25 23 22 22 23 23 23 23 22 23 25 23 24 28 26 27 30 27 22 19 15 14 16 18 18
34 33 32 30 29 28 28 30 28 26 25 24 23 23 23 23 23 21 22 22 21 20 21 23 27 27 28 27 27 24 25 25 24 24 31 26 26 21 21 20 19 19 19 19 19
32 30 30 29 29 29 31 31 31 32 30 26 27 27 26 24 25 24 22 22 21 22 23 24 26 27 28 26 29 27 28 26 28 28 29 30 27 21 20 21 20 19 19 18 17
32 30 31 30 29 30 32 29 29 32 30 27 24 25 25 25 27 26 26 26 25 25 27 27 28 30 32 31 33 33 33 31 28 29 26 24 25 19 20 19 21 22 23 26 25
32 31 31 31 30 31 31 32 31 33 31 27 27 25 27 28 27 28 29 29 28 29 28 27 28 29 33 32 31 28 24 27 29 25 25 24 27 29 31 26 27 27 29 30 30
30 29 29 29 28 26 27 29 30 30 31 31 32 31 30 31 30 30 31 30 33 31 28 28 29 28 30 32 30 32 34 34 29 26 30 29 31 29 32 30 27 28 30 32 34
27 27 26 24 27 27 26 26 28 27 28 27 29 31 31 32 34 36 37 38 37 37 32 30 33 31 35 37 36 37 38 37 36 33 30 29 31 31 28 27 29 29 28 28 29
27 26 25 25 25 28 28 29 33 33 33 32 32 35 35 36 37 40 37 34 33 31 28 26 29 27 35 34 32 35 36 31 32 32 32 30 29 25 26 24 23 23 23 25 27
28 26 24 23 24 25 26 27 28 29 33 35 34 35 36 35 32 32 33 32 31 28 26 25 23 23 25 23 25 28 26 24 28 29 29 28 26 21 20 19 18 20 23 26 27
Wind_Direction
286 290 293 298 302 306 310 314 317 320 323 325 329 329 328 329 327 324 308 295 294 300 301 301 305 306 307 288 282 281 288 274 279 301 301 303 294 285 283 285 275 275 265 262 230
283 287 290 294 299 304 309 313 316 320 322 326 328 329 330 332 331 320 325 318 310 310 309 305 302 305 301 291 292 274 269 263 278 299 289 295 296 289 287 283 279 275 266 248 239
281 285 288 292 297 301 306 310 313 316 320 323 325 327 328 329 322 325 325 317 313 310 308 302 298 301 298 295 287 279 269 273 283 293 296 286 285 297 292 286 268 252 245 243 244
278 283 286 289 294 298 302 306 309 313 316 319 321 322 324 320 314 307 310 312 312 309 308 305 304 304 299 297 294 302 285 287 284 289 289 287 281 281 289 283 267 251 239 242 244
276 279 283 285 290 294 298 301 305 308 311 314 317 319 319 310 297 301 304 305 310 306 302 304 305 310 307 298 299 292 293 296 290 290 291 285 281 277 279 278 261 251 248 249 253
273 276 279 282 286 290 295 298 301 304 306 307 311 313 308 302 293 301 300 302 300 301 300 302 304 304 299 298 295 295 295 292 288 285 282 282 277 280 275 269 256 252 255 258 259
270 274 276 279 283 287 292 295 298 300 301 301 304 304 299 292 297 297 297 293 295 293 295 301 301 302 300 297 290 293 296 294 285 279 276 274 280 276 277 275 250 253 259 257 257
268 272 274 277 282 287 290 294 295 295 296 297 299 297 291 295 293 294 297 299 286 292 288 292 295 292 289 290 292 294 292 292 290 281 278 264 274 287 294 275 248 256 261 261 260
267 271 273 276 280 286 291 294 294 291 290 291 291 291 291 292 290 293 298 292 293 291 293 291 287 286 290 288 293 285 287 287 293 289 276 274 281 281 282 279 263 265 268 265 261
267 269 273 276 281 286 291 294 293 290 287 286 284 288 284 281 291 293 292 290 289 289 291 288 287 281 286 283 281 286 293 293 293 287 296 282 281 288 285 276 270 270 271 268 258
264 268 273 276 282 287 292 295 293 287 286 282 282 278 284 283 288 287 285 282 283 279 283 283 283 278 273 270 278 286 294 291 283 283 292 286 285 287 287 287 284 279 275 266 255
262 268 272 276 280 285 288 288 291 287 288 285 278 278 279 280 282 288 281 276 278 276 279 280 273 275 274 273 279 283 286 288 285 285 289 291 289 287 285 283 283 280 274 264 251
263 267 270 274 278 281 279 285 288 292 286 292 282 280 281 274 282 282 284 284 278 280 279 274 276 282 268 274 280 282 283 285 284 290 290 292 288 289 288 286 283 277 269 261 242
262 264 267 271 274 273 276 281 288 289 290 285 278 283 281 280 286 280 284 286 286 282 283 281 281 277 280 277 277 281 283 287 290 293 289 294 292 287 292 287 287 284 273 256 240
258 260 263 265 270 271 275 278 284 286 287 272 280 280 280 278 291 280 283 286 284 283 287 281 293 281 277 276 279 279 286 286 286 286 290 279 285 292 299 295 292 295 293 251 238
254 257 259 261 263 269 272 275 276 279 273 273 276 279 280 277 284 279 280 282 283 285 284 281 278 279 277 277 276 284 285 286 282 281 280 282 276 288 297 293 285 286 289 253 236
253 253 255 260 262 264 267 266 272 265 277 274 278 276 281 285 278 277 279 279 280 284 284 285 281 282 281 275 274 277 287 284 287 277 277 288 285 281 292 295 280 274 275 267 250
249 250 252 255 259 259 259 262 261 267 270 279 276 277 278 285 282 275 282 280 282 283 286 286 289 283 290 284 274 274 276 278 281 282 287 290 281 285 292 303 301 275 273 273 263
246 249 251 254 255 255 255 259 260 264 273 279 280 276 278 277 276 278 281 281 280 279 279 286 278 281 284 287 282 281 276 277 281 283 283 283 283 287 296 297 299 291 284 279 273
245 247 252 248 251 252 255 259 262 264 275 277 272 276 281 285 288 278 274 280 283 278 278 279 284 272 275 287 280 277 280 282 279 280 278 278 281 278 288 287 285 286 288 286 277
244 247 249 245 250 252 255 259 263 264 269 270 270 272 279 282 279 282 277 285 280 282 283 283 275 280 279 275 280 282 280 278 278 274 274 276 277 280 283 282 283 283 284 282 280
245 249 247 246 252 254 257 259 260 264 269 270 272 269 271 276 277 278 277 277 287 285 282 279 279 280 278 281 283 280 277 275 274 278 272 271 270 268 274 279 280 278 275 276 281
243 247 248 248 253 254 260 262 262 263 265 267 267 266 270 272 275 273 278 280 280 283 279 281 278 283 284 286 280 270 278 279 277 272 274 278 275 281 279 275 276 277 278 278 275
243 246 249 248 254 257 257 260 262 265 265 265 268 270 274 273 271 277 281 281 283 283 275 276 274 273 276 279 284 280 281 278 277 274 276 271 275 280 278 279 280 283 283 283 279
240 246 247 251 251 255 258 264 268 271 270 269 267 268 271 275 275 275 279 283 279 277 274 272 274 273 274 277 278 275 274 275 274 274 273 276 276 276 275 280 283 288 294 294 288
242 247 250 253 254 257 259 264 267 269 270 270 269 272 275 273 274 277 278 279 278 279 276 277 277 280 279 278 277 279 277 276 277 279 279 278 279 282 283 288 291 296 298 299 298
243 247 248 255 259 260 264 267 271 273 272 272 277 274 275 278 277 277 277 275 274 274 275 271 271 276 275 276 288 280 278 275 278 276 276 277 283 284 283 286 289 296 300 302 299